STARLINK-32143 (60296 NORAD) Tracking and Keplerian Element Data

This shows tracking and keplerian element data for the satellite.

Feedback or suggestion? Click here.




ElementValue
Catalog60296
NameSTARLINK-32143
Epoch Orbit1301
Epoch Day286.68480828
Epoch Year2024
RAAN275.5305
Inclination53.1583
Eccentricity0.0001384
Argument of Perigee91.1975
Mean Anonmoly268.9184
Mean Motion15.30198954
Decay Rate0.00010936
L11 60296U 24132U 24286.68480828 .00010936 00000+0 38084-3 0 9995
L22 60296 53.1583 275.5305 0001384 91.1975 268.9184 15.30198954 13013



Live tracking and technical data element details for STARLINK-32143 (NORAD 60296). STARLINK-32143 can be tracked NOW for your location showing map with azimuth and elevation plus other details from your city location.







IsCatalogInMostPopularTable: catalog: 60296, numindb: 13
Update: records affected: 1



GetName: 60296 STARLINK-32143

Hit Count: updated at: Thu, 23 Jan 2025 15:12:17 GMT